Location: Sternwarte_Laufen
(47.9344°N, 12.9346°E)
Time: 05:03:15
(UTC+02:00)

ISS - Pass Details

Date: 22 May 2017
Orbit: 402 x 409 km, 51.6° (Epoch: 23 May)

Event Time Altitude Azimuth Distance (km) Brightness Sun altitude
Exits shadow 00:34:09 30° 65° (ENE) 762 -2.3 -21.3°
Drops below altitude 10° 00:35:57 10° 67° (ENE) 1,468 -0.8 -21.4°
Sets 00:38:02 0° 68° (ENE) 2,329 0.2 -21.4°
